Change the Weather History Date:

Saturday, February 16, 2013

  Actual Average Record
Temperature  
Mean Temperature 28 °F 37 °F  
Max Temperature 34 °F 47 °F 76 °F (1921)
Min Temperature 22 °F 28 °F -8 °F (1958)
Degree Days  
Heating Degree Days 37 28  
Month to date heating degree days 450 466  
Since 1 July heating degree days 3076 3190  
Cooling Degree Days 0 0  
Month to date cooling degree days 0 0  
Year to date cooling degree days 0 0  
Moisture  
Dew Point 19 °F    
Average Humidity 66    
Maximum Humidity 88    
Minimum Humidity 43    
Precipitation  
Precipitation T in 0.10 in 1.69 in (2003)
Month to date precipitation 0.76 1.70  
Year to date precipitation 4.68 4.67  
Snow  
Snow 0.20 in - - ()
Month to date snowfall 5.5  
Since 1 September snowfall 11.9  
Snow Depth T in    
Sea Level Pressure  
Sea Level Pressure 30.06 in    
Wind  
Wind Speed 6 mph (NW)    
Max Wind Speed 15 mph    
Max Gust Speed 24 mph    
Visibility 9 miles    
Events Snow    
T = Trace of Precipitation, MM = Missing Value Source: NWS Daily Summary

Daily Weather History Graph

Daily Weather History Graph

Search for Another Location

Airport or City:

Trip Planner

Search our weather history database for the weather conditions in past years. The results will help you decide how hot, cold, wet, or windy it might be!

Date:

Astronomy

Feb. 16, 2013 Rise Set
Actual Time 7:19 AM EST 6:09 PM EST
Civil Twilight 6:52 AM EST 6:36 PM EST
Nautical Twilight 6:21 AM EST 7:07 PM EST
Astronomical Twilight 5:50 AM EST 7:38 PM EST
Moon 10:37 AM EST (2/16) 12:02 AM EST (2/16)
Length of Visible Light 11h 44m
Length of Day
10h 50m
Waxing Crescent, 39% of the Moon is Illuminated
Feb 16
Waxing Crescent
Feb 17
First Quarter
Feb 25
Full
Mar 4
Last Quarter
Mar 11
New

Hourly Weather History & Observations

Time (EST) Temp. Windchill Dew Point Humidity Pressure Visibility Wind Dir Wind Speed Gust Speed Precip Events Conditions
12:30 AM 32.0 °F 24.2 °F 26.6 °F 80% 30.09 in 10.0 mi NW 9.2 mph - N/A   Overcast
12:51 AM 30.9 °F 22.8 °F 25.0 °F 79% 30.12 in 10.0 mi NNW 9.2 mph - N/A   Overcast
1:10 AM 30.2 °F 21.9 °F 24.8 °F 80% 30.09 in 10.0 mi NNW 9.2 mph - N/A   Overcast
1:51 AM 30.0 °F 22.4 °F 21.9 °F 72% 30.11 in 10.0 mi NNW 8.1 mph - N/A   Overcast
2:51 AM 28.0 °F 20.8 °F 21.9 °F 78% 30.10 in 10.0 mi NNW 6.9 mph - N/A   Partly Cloudy
3:51 AM 27.0 °F 21.6 °F 21.0 °F 78% 30.08 in 10.0 mi NW 4.6 mph - N/A   Clear
4:51 AM 26.1 °F 21.9 °F 21.0 °F 81% 30.08 in 10.0 mi WNW 3.5 mph - N/A   Partly Cloudy
5:09 AM 26.6 °F 21.2 °F 21.2 °F 80% 30.06 in 10.0 mi NW 4.6 mph - N/A   Mostly Cloudy
5:51 AM 26.1 °F 21.9 °F 21.9 °F 84% 30.08 in 10.0 mi WNW 3.5 mph - N/A   Overcast
6:34 AM 24.8 °F 20.5 °F 21.2 °F 86% 30.05 in 10.0 mi NNW 3.5 mph - N/A   Scattered Clouds
6:51 AM 25.0 °F - 21.0 °F 85% 30.08 in 10.0 mi Calm Calm - N/A   Clear
7:51 AM 25.0 °F 20.7 °F 21.0 °F 85% 30.08 in 8.0 mi NW 3.5 mph - N/A   Clear
8:51 AM 26.1 °F - 21.0 °F 81% 30.09 in 8.0 mi Calm Calm - N/A   Scattered Clouds
9:51 AM 28.0 °F 24.2 °F 19.0 °F 69% 30.08 in 10.0 mi NNW 3.5 mph - N/A   Scattered Clouds
10:51 AM 30.9 °F 27.5 °F 18.0 °F 59% 30.06 in 10.0 mi Variable 3.5 mph - N/A   Scattered Clouds
11:51 AM 30.9 °F 23.5 °F 16.0 °F 54% 30.05 in 10.0 mi NNW 8.1 mph 16.1 mph N/A   Mostly Cloudy
12:51 PM 33.1 °F 26.1 °F 16.0 °F 50% 30.03 in 10.0 mi NNW 8.1 mph - N/A   Overcast
1:51 PM 32.0 °F 23.6 °F 12.9 °F 45% 30.02 in 10.0 mi West 10.4 mph - N/A   Mostly Cloudy
2:51 PM 32.0 °F 23.6 °F 12.9 °F 45% 30.01 in 10.0 mi NW 10.4 mph - N/A   Overcast
3:51 PM 33.1 °F 26.9 °F 14.0 °F 46% 30.00 in 10.0 mi West 6.9 mph - N/A   Mostly Cloudy
4:51 PM 32.0 °F 24.2 °F 15.1 °F 50% 30.01 in 10.0 mi West 9.2 mph - N/A   Mostly Cloudy
5:04 PM 30.2 °F 22.6 °F 21.2 °F 69% 29.99 in 1.5 mi West 8.1 mph 24.2 mph 0.00 in Snow Light Snow
5:08 PM 28.4 °F 18.5 °F 21.2 °F 74% 30.00 in 1.5 mi NW 11.5 mph 18.4 mph 0.00 in Snow Light Snow
5:19 PM 28.4 °F 22.2 °F 23.0 °F 80% 30.00 in 1.5 mi WNW 5.8 mph - 0.00 in Snow Light Snow
5:38 PM 28.4 °F 23.3 °F 21.2 °F 74% 30.00 in 6.0 mi NW 4.6 mph - 0.00 in Snow Light Snow
5:51 PM 28.9 °F 22.8 °F 21.9 °F 75% 30.03 in 10.0 mi NW 5.8 mph - 0.00 in   Mostly Cloudy
6:51 PM 28.0 °F 24.2 °F 21.9 °F 78% 30.04 in 8.0 mi North 3.5 mph - 0.00 in Snow Light Snow
7:51 PM 27.0 °F 20.5 °F 19.0 °F 72% 30.05 in 10.0 mi WNW 5.8 mph - 0.00 in   Mostly Cloudy
8:51 PM 26.1 °F 17.6 °F 12.0 °F 55% 30.06 in 10.0 mi NW 8.1 mph - N/A   Clear
9:51 PM 25.0 °F 14.2 °F 12.9 °F 60% 30.07 in 10.0 mi NW 11.5 mph - N/A   Clear
10:51 PM 23.0 °F 13.1 °F 12.0 °F 63% 30.09 in 10.0 mi NW 9.2 mph - N/A   Overcast
11:51 PM 21.9 °F 12.5 °F 10.0 °F 60% 30.09 in 10.0 mi WNW 8.1 mph - N/A   Overcast